ITY101 LIRF-EDDH

Flight info

Callsign ITY101
Flight time 1h 58m
Altitude 40000
Route SOVAN DCT AMTEL DCT NEVMO DCT DIKEM DCT SUMIR DCT BRENO DCT KONIN DCT KEMES DCT ABGUS DCT DIRBO/N0410F230 T902 RARUP RARUP3S
Aircraft A359/H-SDE2E3GHIJ3J4J5LM1ORWXY/LB1D1

Departure

Time 2026-05-06 20:51
Airport Rome–Fiumicino Leonardo da Vinci International Airport (LIRF)

Arrival

Time 2026-05-06 22:49
Airport Hamburg Helmut Schmidt Airport (EDDH)
Time Latitude Longitude Altitude Speed Heading
2026-05-06 19:50 41.79179 12.24254 27 ft 0 kts 70°
2026-05-06 20:31 41.79176 12.24241 27 ft 2 kts 70°
2026-05-06 20:31 41.79171 12.24224 26 ft 3 kts 70°
2026-05-06 20:31 41.79165 12.24201 27 ft 3 kts 70°
2026-05-06 20:32 41.79155 12.24178 26 ft 3 kts 32°
2026-05-06 20:32 41.79137 12.24169 25 ft 3 kts 351°
2026-05-06 20:32 41.79132 12.24170 25 ft 0 kts 345°
2026-05-06 20:40 41.79134 12.24169 25 ft 1 kts 343°
2026-05-06 20:40 41.79144 12.24161 27 ft 2 kts 333°
2026-05-06 20:40 41.79175 12.24137 26 ft 6 kts 327°
2026-05-06 20:41 41.79202 12.24115 26 ft 8 kts 331°
2026-05-06 20:41 41.79266 12.24081 25 ft 12 kts 342°
2026-05-06 20:41 41.79334 12.24017 27 ft 13 kts 291°
2026-05-06 20:41 41.79339 12.23913 25 ft 10 kts 299°
2026-05-06 20:42 41.79386 12.23874 24 ft 7 kts 338°
2026-05-06 20:42 41.79435 12.23850 23 ft 8 kts 341°
2026-05-06 20:42 41.79491 12.23824 20 ft 9 kts 341°
2026-05-06 20:42 41.79555 12.23796 22 ft 10 kts 343°
2026-05-06 20:43 41.79621 12.23770 22 ft 10 kts 343°
2026-05-06 20:43 41.79695 12.23741 19 ft 12 kts 343°
2026-05-06 20:43 41.79786 12.23706 21 ft 14 kts 343°
2026-05-06 20:43 41.79869 12.23681 23 ft 7 kts
2026-05-06 20:44 41.79906 12.23705 23 ft 5 kts 40°
2026-05-06 20:44 41.79924 12.23773 25 ft 11 kts 73°
2026-05-06 20:44 41.79957 12.23903 21 ft 18 kts 69°
2026-05-06 20:44 41.79989 12.24073 20 ft 20 kts 78°
2026-05-06 20:45 41.80037 12.24252 17 ft 22 kts 69°
2026-05-06 20:45 41.80090 12.24452 18 ft 24 kts 71°
2026-05-06 20:45 41.80148 12.24665 17 ft 25 kts 69°
2026-05-06 20:45 41.80201 12.24882 26 ft 24 kts 81°
2026-05-06 20:46 41.80214 12.25101 27 ft 24 kts 75°
2026-05-06 20:46 41.80274 12.25320 28 ft 26 kts 69°
2026-05-06 20:46 41.80337 12.25547 24 ft 21 kts 70°
2026-05-06 20:46 41.80388 12.25731 24 ft 22 kts 70°
2026-05-06 20:47 41.80444 12.25935 22 ft 24 kts 70°
2026-05-06 20:47 41.80503 12.26149 23 ft 25 kts 70°
2026-05-06 20:47 41.80564 12.26370 24 ft 25 kts 70°
2026-05-06 20:47 41.80627 12.26596 22 ft 27 kts 70°
2026-05-06 20:48 41.80686 12.26808 19 ft 21 kts 70°
2026-05-06 20:48 41.80735 12.26988 15 ft 10 kts 70°
2026-05-06 20:48 41.80764 12.27039 15 ft 7 kts 32°
2026-05-06 20:48 41.80813 12.27035 15 ft 8 kts 344°
2026-05-06 20:49 41.80854 12.27017 15 ft 0 kts 340°
2026-05-06 20:49 41.80855 12.27017 15 ft 1 kts 340°
2026-05-06 20:50 41.80883 12.27004 15 ft 8 kts 341°
2026-05-06 20:50 41.80944 12.26961 16 ft 11 kts 310°
2026-05-06 20:50 41.80940 12.26863 16 ft 12 kts 251°
2026-05-06 20:50 41.80898 12.26707 15 ft 30 kts 249°
2026-05-06 20:51 41.80790 12.26323 27 ft 68 kts 250°
2026-05-06 20:51 41.80545 12.25430 23 ft 134 kts 249°
2026-05-06 20:51 41.80188 12.24092 418 ft 156 kts 252°
2026-05-06 20:51 41.79852 12.22721 1270 ft 152 kts 253°
2026-05-06 20:52 41.79509 12.21337 1847 ft 166 kts 253°
2026-05-06 20:52 41.79311 12.19719 2293 ft 184 kts 266°
2026-05-06 20:52 41.79248 12.17982 2941 ft 191 kts 268°
2026-05-06 20:52 41.79157 12.16178 3630 ft 197 kts 261°
2026-05-06 20:53 41.78611 12.14482 4305 ft 202 kts 233°
2026-05-06 20:53 41.77631 12.13119 5033 ft 204 kts 224°
2026-05-06 20:53 41.76582 12.11844 5748 ft 207 kts 224°
2026-05-06 20:53 41.75506 12.10538 6490 ft 209 kts 224°
2026-05-06 20:54 41.74423 12.09211 7242 ft 212 kts 224°
2026-05-06 20:54 41.73324 12.07856 7988 ft 216 kts 224°
2026-05-06 20:54 41.72225 12.06496 8787 ft 218 kts 225°
2026-05-06 20:54 41.71069 12.05169 9584 ft 221 kts 217°
2026-05-06 20:55 41.69619 12.04391 10280 ft 233 kts 191°
2026-05-06 20:55 41.67907 12.04251 10663 ft 258 kts 182°
2026-05-06 20:55 41.66050 12.04284 11057 ft 281 kts 181°
2026-05-06 20:55 41.64009 12.04324 11444 ft 304 kts 181°
2026-05-06 20:56 41.61825 12.04308 11824 ft 325 kts 185°
2026-05-06 20:56 41.59560 12.03667 12296 ft 338 kts 204°
2026-05-06 20:56 41.57562 12.01988 13009 ft 342 kts 224°
2026-05-06 20:56 41.56138 11.99486 13772 ft 345 kts 244°
2026-05-06 20:57 41.55458 11.96414 14535 ft 349 kts 264°
2026-05-06 20:57 41.55658 11.93146 15293 ft 353 kts 285°
2026-05-06 20:57 41.56716 11.90229 16007 ft 358 kts 306°
2026-05-06 20:57 41.58558 11.87950 16714 ft 365 kts 327°
2026-05-06 20:58 41.60940 11.86732 17422 ft 373 kts 349°
2026-05-06 20:58 41.63550 11.86808 18128 ft 380 kts 11°
2026-05-06 20:58 41.66055 11.88027 18860 ft 386 kts 23°
2026-05-06 20:58 41.66929 11.88567 19112 ft 388 kts 24°
2026-05-06 20:59 41.67846 11.89147 19370 ft 390 kts 24°
2026-05-06 21:00 41.70288 11.90698 20068 ft 394 kts 24°
2026-05-06 21:00 41.72801 11.92279 20763 ft 398 kts 24°
2026-05-06 21:00 41.75293 11.93833 21413 ft 402 kts 24°
2026-05-06 21:00 41.77857 11.95424 22063 ft 406 kts 23°
2026-05-06 21:01 41.80440 11.97022 22711 ft 410 kts 23°
2026-05-06 21:01 41.83022 11.98619 23333 ft 414 kts 23°
2026-05-06 21:01 41.85660 12.00218 23924 ft 417 kts 21°
2026-05-06 21:01 41.88475 12.01136 24513 ft 418 kts
2026-05-06 21:02 41.91393 12.01229 25090 ft 420 kts 356°
2026-05-06 21:02 41.94332 12.00915 25648 ft 423 kts 352°
2026-05-06 21:02 41.97271 12.00430 26192 ft 427 kts 351°
2026-05-06 21:02 42.00230 11.99907 26716 ft 431 kts 351°
2026-05-06 21:03 42.03187 11.99414 27247 ft 434 kts 352°
2026-05-06 21:03 42.06214 11.98955 27738 ft 438 kts 352°
2026-05-06 21:03 42.09279 11.98531 28215 ft 443 kts 353°
2026-05-06 21:03 42.12328 11.98136 28702 ft 446 kts 353°
2026-05-06 21:04 42.15435 11.97747 29167 ft 449 kts 353°
2026-05-06 21:04 42.18582 11.97359 29634 ft 452 kts 353°
2026-05-06 21:04 42.21699 11.96975 30061 ft 456 kts 353°
2026-05-06 21:04 42.24880 11.96581 30490 ft 458 kts 353°
2026-05-06 21:05 42.28078 11.96183 30898 ft 462 kts 353°
2026-05-06 21:05 42.31292 11.95781 31286 ft 464 kts 353°
2026-05-06 21:05 42.34491 11.95380 31666 ft 467 kts 353°
2026-05-06 21:05 42.37736 11.94971 32039 ft 470 kts 353°
2026-05-06 21:06 42.41012 11.94558 32391 ft 473 kts 353°
2026-05-06 21:06 42.44296 11.94143 32714 ft 475 kts 353°
2026-05-06 21:06 42.47611 11.93724 33052 ft 478 kts 353°
2026-05-06 21:06 42.50933 11.93304 33360 ft 481 kts 353°
2026-05-06 21:07 42.54237 11.92886 33648 ft 483 kts 353°
2026-05-06 21:07 42.57599 11.92460 33954 ft 486 kts 353°
2026-05-06 21:07 42.60969 11.92033 34226 ft 488 kts 353°
2026-05-06 21:07 42.64369 11.91601 34540 ft 489 kts 353°
2026-05-06 21:08 42.67762 11.91170 34951 ft 487 kts 353°
2026-05-06 21:08 42.71098 11.90746 35317 ft 487 kts 353°
2026-05-06 21:08 42.74494 11.90314 35662 ft 487 kts 353°
2026-05-06 21:08 42.77876 11.89883 36015 ft 486 kts 353°
2026-05-06 21:09 42.81173 11.89234 36320 ft 485 kts 347°
2026-05-06 21:09 42.84423 11.87994 36585 ft 484 kts 339°
2026-05-06 21:09 42.87509 11.86164 36866 ft 483 kts 333°
2026-05-06 21:09 42.90523 11.84105 37153 ft 483 kts 332°
2026-05-06 21:10 42.93495 11.81967 37425 ft 483 kts 330°
2026-05-06 21:10 42.96421 11.79810 37696 ft 482 kts 330°
2026-05-06 21:10 42.99368 11.77620 37962 ft 482 kts 330°
2026-05-06 21:10 43.02317 11.75427 38224 ft 482 kts 330°
2026-05-06 21:11 43.05267 11.73240 38474 ft 482 kts 330°
2026-05-06 21:11 43.08228 11.71051 38706 ft 482 kts 330°
2026-05-06 21:11 43.11188 11.68868 38941 ft 482 kts 330°
2026-05-06 21:11 43.14111 11.66713 39163 ft 482 kts 330°
2026-05-06 21:12 43.17061 11.64538 39377 ft 482 kts 330°
2026-05-06 21:12 43.20091 11.62550 39579 ft 483 kts 337°
2026-05-06 21:12 43.23296 11.61129 39764 ft 484 kts 346°
2026-05-06 21:12 43.26621 11.60333 39943 ft 485 kts 351°
2026-05-06 21:13 43.29987 11.59775 39998 ft 488 kts 353°
2026-05-06 21:13 43.36732 11.58900 40003 ft 489 kts 354°
2026-05-06 21:14 43.43529 11.58092 39998 ft 489 kts 354°
2026-05-06 21:14 43.50296 11.57257 40004 ft 489 kts 353°
2026-05-06 21:15 43.57087 11.56393 40002 ft 488 kts 353°
2026-05-06 21:15 43.63809 11.55527 40001 ft 488 kts 353°
2026-05-06 21:16 43.70597 11.54650 40002 ft 490 kts 353°
2026-05-06 21:16 43.77388 11.53772 40002 ft 492 kts 353°
2026-05-06 21:17 43.84229 11.52887 40001 ft 491 kts 353°
2026-05-06 21:17 43.91033 11.52005 40004 ft 489 kts 353°
2026-05-06 21:18 43.97773 11.51129 39999 ft 489 kts 353°
2026-05-06 21:18 44.04592 11.50240 40003 ft 492 kts 353°
2026-05-06 21:19 44.11384 11.49353 40003 ft 493 kts 353°
2026-05-06 21:19 44.18218 11.48459 40001 ft 492 kts 353°
2026-05-06 21:20 44.24993 11.47571 40000 ft 490 kts 353°
2026-05-06 21:20 44.31791 11.46677 40001 ft 490 kts 353°
2026-05-06 21:21 44.38591 11.45780 39997 ft 489 kts 353°
2026-05-06 21:21 44.45329 11.44890 39998 ft 488 kts 353°
2026-05-06 21:22 44.52119 11.43991 39999 ft 487 kts 353°
2026-05-06 21:22 44.58859 11.43097 40000 ft 487 kts 353°
2026-05-06 21:23 44.65579 11.42203 39999 ft 487 kts 353°
2026-05-06 21:23 44.72336 11.41301 39998 ft 487 kts 353°
2026-05-06 21:24 44.79098 11.40398 39999 ft 487 kts 353°
2026-05-06 21:24 44.85829 11.39496 39999 ft 487 kts 353°
2026-05-06 21:25 44.92599 11.39028 40000 ft 488 kts 358°
2026-05-06 21:25 44.99403 11.39023 40002 ft 488 kts 359°
2026-05-06 21:26 45.06176 11.39090 40001 ft 488 kts 359°
2026-05-06 21:26 45.12940 11.39161 40004 ft 488 kts 359°
2026-05-06 21:27 45.18587 11.39213 40001 ft 488 kts 359°
2026-05-06 21:27 45.25400 11.39271 40001 ft 488 kts 359°
2026-05-06 21:28 45.32201 11.39328 40001 ft 488 kts 359°
2026-05-06 21:28 45.38968 11.39385 40004 ft 488 kts 359°
2026-05-06 21:29 45.45750 11.39442 40001 ft 488 kts 359°
2026-05-06 21:29 45.52568 11.39500 40000 ft 488 kts 359°
2026-05-06 21:30 45.59348 11.39558 40000 ft 489 kts 359°
2026-05-06 21:30 45.66160 11.39616 40002 ft 490 kts 359°
2026-05-06 21:31 45.72964 11.39675 39999 ft 489 kts 359°
2026-05-06 21:31 45.79796 11.39734 40001 ft 492 kts 359°
2026-05-06 21:32 45.86659 11.39792 39999 ft 494 kts 359°
2026-05-06 21:32 45.97018 11.39881 40003 ft 499 kts 359°
2026-05-06 21:33 46.03917 11.39790 40001 ft 496 kts 354°
2026-05-06 21:33 46.10764 11.38738 39998 ft 494 kts 352°
2026-05-06 21:34 46.17620 11.37509 40002 ft 501 kts 352°
2026-05-06 21:34 46.24560 11.36270 39996 ft 500 kts 354°
2026-05-06 21:35 46.31507 11.36092 39997 ft 497 kts 359°
2026-05-06 21:35 46.38388 11.36218 40000 ft 496 kts 360°
2026-05-06 21:36 46.45309 11.36403 40000 ft 496 kts 360°
2026-05-06 21:36 46.52205 11.36582 40000 ft 494 kts 360°
2026-05-06 21:37 46.59024 11.36745 39997 ft 492 kts 360°
2026-05-06 21:37 46.65909 11.36905 40001 ft 495 kts 360°
2026-05-06 21:38 46.72823 11.37068 40004 ft 499 kts 360°
2026-05-06 21:38 46.79760 11.37231 39999 ft 500 kts 360°
2026-05-06 21:39 46.86748 11.37398 39998 ft 501 kts 360°
2026-05-06 21:39 46.93713 11.37563 39997 ft 499 kts 360°
2026-05-06 21:40 47.00637 11.37712 40000 ft 501 kts 359°
2026-05-06 21:40 47.07631 11.37653 40000 ft 501 kts 358°
2026-05-06 21:41 47.14589 11.37533 40001 ft 503 kts 358°
2026-05-06 21:41 47.21563 11.37438 40000 ft 497 kts 358°
2026-05-06 21:42 47.28427 11.37366 39998 ft 494 kts 358°
2026-05-06 21:42 47.35328 11.37299 39999 ft 498 kts 358°
2026-05-06 21:43 47.42302 11.37231 39997 ft 501 kts 358°
2026-05-06 21:43 47.49239 11.37164 39998 ft 499 kts 358°
2026-05-06 21:44 47.56187 11.37098 39999 ft 498 kts 358°
2026-05-06 21:44 47.63101 11.37030 40002 ft 495 kts 358°
2026-05-06 21:45 47.69950 11.36961 40000 ft 493 kts 358°
2026-05-06 21:45 47.76812 11.36892 39998 ft 492 kts 358°
2026-05-06 21:46 47.83671 11.36823 39998 ft 492 kts 358°
2026-05-06 21:46 47.90496 11.36606 39999 ft 492 kts 356°
2026-05-06 21:47 47.97346 11.35970 39999 ft 492 kts 355°
2026-05-06 21:47 48.04196 11.35303 39998 ft 492 kts 355°
2026-05-06 21:48 48.10991 11.34703 39998 ft 491 kts 355°
2026-05-06 21:48 48.17820 11.34134 40003 ft 491 kts 355°
2026-05-06 21:49 48.24665 11.33569 40000 ft 491 kts 355°
2026-05-06 21:49 48.31403 11.33009 40002 ft 491 kts 355°
2026-05-06 21:50 48.38236 11.32437 40000 ft 491 kts 355°
2026-05-06 21:50 48.45072 11.31863 40000 ft 491 kts 355°
2026-05-06 21:51 48.51864 11.31291 40002 ft 491 kts 355°
2026-05-06 21:51 48.58689 11.30715 40002 ft 490 kts 355°
2026-05-06 21:52 48.65491 11.30140 39998 ft 490 kts 355°
2026-05-06 21:52 48.72288 11.29563 39999 ft 490 kts 355°
2026-05-06 21:53 48.79119 11.28982 40000 ft 490 kts 355°
2026-05-06 21:53 48.85907 11.28403 39999 ft 490 kts 355°
2026-05-06 21:54 48.92706 11.27821 40001 ft 490 kts 355°
2026-05-06 21:54 48.99526 11.27236 39998 ft 491 kts 355°
2026-05-06 21:55 49.06364 11.26648 39999 ft 491 kts 355°
2026-05-06 21:55 49.13151 11.26063 40002 ft 491 kts 355°
2026-05-06 21:56 49.19989 11.25471 39999 ft 490 kts 355°
2026-05-06 21:56 49.26782 11.24882 39998 ft 490 kts 355°
2026-05-06 21:57 49.33566 11.24292 40000 ft 490 kts 355°
2026-05-06 21:57 49.40398 11.23696 40002 ft 490 kts 355°
2026-05-06 21:58 49.47202 11.23101 40003 ft 490 kts 355°
2026-05-06 21:58 49.54024 11.22503 39998 ft 490 kts 355°
2026-05-06 21:59 49.60849 11.21955 39999 ft 490 kts 356°
2026-05-06 21:59 49.67628 11.21500 40000 ft 490 kts 356°
2026-05-06 22:00 49.74468 11.21039 39998 ft 491 kts 356°
2026-05-06 22:00 49.81264 11.20566 39998 ft 490 kts 356°
2026-05-06 22:01 49.88096 11.20081 40001 ft 490 kts 356°
2026-05-06 22:01 49.94896 11.19595 40001 ft 491 kts 356°
2026-05-06 22:02 50.01720 11.19107 39998 ft 491 kts 356°
2026-05-06 22:02 50.08525 11.18620 39998 ft 491 kts 356°
2026-05-06 22:03 50.15371 11.18128 39999 ft 490 kts 356°
2026-05-06 22:03 50.22151 11.17640 40004 ft 490 kts 356°
2026-05-06 22:04 50.28981 11.17147 39998 ft 490 kts 356°
2026-05-06 22:04 50.35777 11.16654 40002 ft 490 kts 356°
2026-05-06 22:05 50.42601 11.16159 39998 ft 491 kts 356°
2026-05-06 22:05 50.49403 11.15663 39998 ft 492 kts 356°
2026-05-06 22:06 50.56267 11.15161 39998 ft 492 kts 356°
2026-05-06 22:06 50.63084 11.14662 40002 ft 492 kts 356°
2026-05-06 22:07 50.69924 11.14159 39998 ft 490 kts 356°
2026-05-06 22:07 50.76716 11.13659 40000 ft 490 kts 356°
2026-05-06 22:08 50.83557 11.13153 39998 ft 490 kts 356°
2026-05-06 22:08 50.90386 11.12647 39998 ft 490 kts 356°
2026-05-06 22:09 50.97162 11.12143 39999 ft 490 kts 356°
2026-05-06 22:09 51.03981 11.11634 39999 ft 489 kts 356°
2026-05-06 22:10 51.10774 11.11126 40000 ft 489 kts 356°
2026-05-06 22:10 51.17549 11.10618 40003 ft 488 kts 356°
2026-05-06 22:11 51.24354 11.10106 39999 ft 488 kts 356°
2026-05-06 22:11 51.31124 11.09595 40000 ft 488 kts 356°
2026-05-06 22:12 51.37930 11.09079 40002 ft 489 kts 356°
2026-05-06 22:12 51.43597 11.08650 40002 ft 490 kts 356°
2026-05-06 22:13 51.51510 11.08047 39999 ft 489 kts 356°
2026-05-06 22:13 51.57214 11.07612 40000 ft 490 kts 356°
2026-05-06 22:14 51.63998 11.07093 40003 ft 490 kts 356°
2026-05-06 22:14 51.70831 11.06568 39998 ft 491 kts 356°
2026-05-06 22:15 51.77654 11.06042 39999 ft 490 kts 356°
2026-05-06 22:15 51.84423 11.05520 39998 ft 489 kts 356°
2026-05-06 22:16 51.91212 11.04761 39999 ft 488 kts 352°
2026-05-06 22:16 51.97940 11.03216 40004 ft 487 kts 350°
2026-05-06 22:17 52.04615 11.01598 40000 ft 487 kts 351°
2026-05-06 22:17 52.11340 11.00082 39740 ft 486 kts 351°
2026-05-06 22:18 52.14659 10.99363 39501 ft 485 kts 351°
2026-05-06 22:18 52.18011 10.98644 39247 ft 485 kts 351°
2026-05-06 22:18 52.21354 10.97928 38895 ft 482 kts 351°
2026-05-06 22:18 52.24650 10.97222 38317 ft 480 kts 351°
2026-05-06 22:19 52.27967 10.96509 37671 ft 480 kts 351°
2026-05-06 22:19 52.31290 10.95792 37004 ft 480 kts 351°
2026-05-06 22:19 52.34599 10.95075 36332 ft 480 kts 351°
2026-05-06 22:19 52.37924 10.94354 35633 ft 480 kts 351°
2026-05-06 22:20 52.41197 10.93642 34926 ft 480 kts 351°
2026-05-06 22:20 52.44520 10.92919 34127 ft 482 kts 351°
2026-05-06 22:20 52.47845 10.92193 33463 ft 480 kts 351°
2026-05-06 22:20 52.51163 10.91470 32873 ft 477 kts 351°
2026-05-06 22:21 52.54447 10.90753 32301 ft 473 kts 351°
2026-05-06 22:21 52.57706 10.90040 31724 ft 469 kts 351°
2026-05-06 22:21 52.60897 10.89341 31162 ft 466 kts 351°
2026-05-06 22:21 52.64105 10.88636 30587 ft 462 kts 351°
2026-05-06 22:22 52.67294 10.87935 30031 ft 459 kts 351°
2026-05-06 22:22 52.70462 10.87237 29451 ft 455 kts 351°
2026-05-06 22:22 52.73559 10.86554 28896 ft 451 kts 351°
2026-05-06 22:22 52.76659 10.85870 28353 ft 448 kts 351°
2026-05-06 22:23 52.79745 10.85187 27804 ft 444 kts 351°
2026-05-06 22:23 52.82774 10.84516 27263 ft 441 kts 351°
2026-05-06 22:23 52.85799 10.83863 26721 ft 437 kts 352°
2026-05-06 22:23 52.88820 10.83256 26197 ft 433 kts 352°
2026-05-06 22:24 52.91807 10.82659 25629 ft 430 kts 352°
2026-05-06 22:24 52.94763 10.82064 25105 ft 426 kts 352°
2026-05-06 22:24 52.97659 10.81478 24567 ft 423 kts 352°
2026-05-06 22:24 53.00574 10.80885 24029 ft 419 kts 352°
2026-05-06 22:25 53.03474 10.80293 23484 ft 415 kts 352°
2026-05-06 22:25 53.06333 10.79709 22944 ft 412 kts 352°
2026-05-06 22:25 53.09126 10.79137 22416 ft 408 kts 352°
2026-05-06 22:25 53.11938 10.78560 21869 ft 404 kts 351°
2026-05-06 22:26 53.14734 10.77986 21320 ft 401 kts 351°
2026-05-06 22:26 53.17494 10.77418 20778 ft 398 kts 351°
2026-05-06 22:26 53.20233 10.76854 20238 ft 394 kts 351°
2026-05-06 22:26 53.22945 10.76295 19693 ft 391 kts 351°
2026-05-06 22:27 53.25610 10.75745 19157 ft 388 kts 351°
2026-05-06 22:27 53.28290 10.75190 18612 ft 385 kts 351°
2026-05-06 22:27 53.30949 10.74640 18079 ft 381 kts 351°
2026-05-06 22:27 53.33539 10.74103 17546 ft 378 kts 351°
2026-05-06 22:28 53.36144 10.73562 17018 ft 375 kts 351°
2026-05-06 22:28 53.38731 10.73025 16487 ft 372 kts 351°
2026-05-06 22:28 53.41302 10.72490 15957 ft 369 kts 351°
2026-05-06 22:28 53.43843 10.71961 15432 ft 366 kts 351°
2026-05-06 22:29 53.46334 10.71441 14918 ft 363 kts 351°
2026-05-06 22:29 53.48835 10.70919 14393 ft 360 kts 351°
2026-05-06 22:29 53.51323 10.70399 13881 ft 357 kts 351°
2026-05-06 22:29 53.53786 10.69883 13356 ft 355 kts 351°
2026-05-06 22:30 53.56198 10.69378 12850 ft 352 kts 351°
2026-05-06 22:30 53.58627 10.68868 12333 ft 349 kts 351°
2026-05-06 22:30 53.60989 10.68016 11827 ft 344 kts 337°
2026-05-06 22:30 53.62931 10.65852 11328 ft 337 kts 312°
2026-05-06 22:31 53.64114 10.62518 10871 ft 330 kts 285°
2026-05-06 22:31 53.64255 10.58687 10739 ft 333 kts 261°
2026-05-06 22:31 53.63417 10.55107 10613 ft 324 kts 238°
2026-05-06 22:31 53.62122 10.52099 10444 ft 311 kts 233°
2026-05-06 22:32 53.60860 10.49221 10249 ft 297 kts 239°
2026-05-06 22:32 53.59878 10.46296 10090 ft 285 kts 243°
2026-05-06 22:32 53.58986 10.43376 9912 ft 279 kts 244°
2026-05-06 22:32 53.58105 10.40457 9758 ft 279 kts 244°
2026-05-06 22:33 53.57226 10.37538 9585 ft 279 kts 244°
2026-05-06 22:33 53.56346 10.34626 9439 ft 278 kts 244°
2026-05-06 22:33 53.55470 10.31727 9279 ft 277 kts 244°
2026-05-06 22:33 53.54503 10.28951 9125 ft 278 kts 233°
2026-05-06 22:34 53.53027 10.26857 8972 ft 280 kts 208°
2026-05-06 22:34 53.51132 10.26088 8809 ft 283 kts 181°
2026-05-06 22:34 53.49226 10.26829 8653 ft 287 kts 155°
2026-05-06 22:34 53.47469 10.28471 8491 ft 288 kts 153°
2026-05-06 22:35 53.45730 10.30049 8337 ft 287 kts 154°
2026-05-06 22:35 53.43957 10.31597 8164 ft 287 kts 154°
2026-05-06 22:35 53.42188 10.33120 8009 ft 286 kts 154°
2026-05-06 22:35 53.40404 10.34647 7834 ft 285 kts 154°
2026-05-06 22:36 53.38640 10.36153 7682 ft 284 kts 155°
2026-05-06 22:36 53.36879 10.37645 7514 ft 283 kts 155°
2026-05-06 22:36 53.35120 10.39135 7372 ft 283 kts 155°
2026-05-06 22:36 53.33386 10.40609 7210 ft 282 kts 155°
2026-05-06 22:37 53.31628 10.42093 7049 ft 282 kts 155°
2026-05-06 22:37 53.29870 10.43575 6893 ft 281 kts 155°
2026-05-06 22:37 53.28136 10.45039 6724 ft 281 kts 155°
2026-05-06 22:37 53.26387 10.46355 6583 ft 269 kts 164°
2026-05-06 22:38 53.24589 10.46648 6427 ft 252 kts 190°
2026-05-06 22:38 53.23001 10.45684 6290 ft 237 kts 215°
2026-05-06 22:38 53.21866 10.43858 6159 ft 223 kts 237°
2026-05-06 22:38 53.21205 10.41652 6038 ft 211 kts 253°
2026-05-06 22:39 53.21013 10.39309 5918 ft 200 kts 272°
2026-05-06 22:39 53.21294 10.37105 5825 ft 194 kts 291°
2026-05-06 22:39 53.21993 10.35186 5710 ft 195 kts 309°
2026-05-06 22:39 53.23030 10.33756 5618 ft 197 kts 327°
2026-05-06 22:40 53.24247 10.32674 5523 ft 198 kts 331°
2026-05-06 22:40 53.25481 10.31661 5438 ft 197 kts 331°
2026-05-06 22:40 53.26720 10.30638 5353 ft 197 kts 331°
2026-05-06 22:40 53.27937 10.29622 5256 ft 197 kts 331°
2026-05-06 22:41 53.30385 10.27556 5045 ft 196 kts 330°
2026-05-06 22:41 53.31606 10.26522 5012 ft 196 kts 330°
2026-05-06 22:41 53.32811 10.25506 5002 ft 196 kts 330°
2026-05-06 22:42 53.34024 10.24474 5000 ft 196 kts 330°
2026-05-06 22:42 53.35245 10.23433 5010 ft 196 kts 330°
2026-05-06 22:42 53.36461 10.22397 5040 ft 196 kts 330°
2026-05-06 22:42 53.37704 10.21455 5054 ft 196 kts 334°
2026-05-06 22:43 53.38922 10.20493 5047 ft 195 kts 331°
2026-05-06 22:43 53.40133 10.19458 4989 ft 195 kts 330°
2026-05-06 22:43 53.41338 10.18412 4770 ft 192 kts 330°
2026-05-06 22:43 53.42515 10.17391 4513 ft 188 kts 330°
2026-05-06 22:44 53.43676 10.16384 4196 ft 187 kts 330°
2026-05-06 22:44 53.44807 10.15404 3902 ft 185 kts 330°
2026-05-06 22:44 53.45942 10.14421 3630 ft 180 kts 330°
2026-05-06 22:44 53.47045 10.13463 3403 ft 175 kts 329°
2026-05-06 22:45 53.48105 10.12544 3178 ft 170 kts 329°
2026-05-06 22:45 53.49143 10.11644 2948 ft 164 kts 329°
2026-05-06 22:45 53.50144 10.10775 2748 ft 159 kts 329°
2026-05-06 22:45 53.51111 10.09936 2520 ft 154 kts 330°
2026-05-06 22:46 53.52039 10.09131 2341 ft 150 kts 330°
2026-05-06 22:46 53.52963 10.08331 2135 ft 148 kts 330°
2026-05-06 22:46 53.53863 10.07554 1942 ft 142 kts 330°
2026-05-06 22:46 53.54720 10.06809 1748 ft 134 kts 329°
2026-05-06 22:47 53.55550 10.06090 1578 ft 134 kts 329°
2026-05-06 22:47 53.56370 10.05379 1422 ft 135 kts 328°
2026-05-06 22:47 53.57204 10.04650 1268 ft 135 kts 328°
2026-05-06 22:47 53.58040 10.03908 1097 ft 135 kts 328°
2026-05-06 22:48 53.58878 10.03181 900 ft 135 kts 330°
2026-05-06 22:48 53.59696 10.02477 690 ft 132 kts 331°
2026-05-06 22:48 53.60511 10.01776 572 ft 132 kts 328°
2026-05-06 22:48 53.61325 10.01062 383 ft 133 kts 331°
2026-05-06 22:49 53.62156 10.00367 215 ft 132 kts 330°
2026-05-06 22:49 53.62984 9.99642 88 ft 135 kts 330°
2026-05-06 22:49 53.63767 9.98971 44 ft 108 kts 335°
2026-05-06 22:49 53.64168 9.98627 45 ft 21 kts 332°
2026-05-06 22:50 53.64187 9.98610 45 ft 2 kts 332°
2026-05-06 22:50 53.64226 9.98575 43 ft 11 kts 332°
2026-05-06 22:50 53.64319 9.98492 46 ft 18 kts 332°
2026-05-06 22:50 53.64446 9.98399 46 ft 21 kts 344°
2026-05-06 22:51 53.64533 9.98376 46 ft 0 kts 356°
2026-05-06 22:51 53.64535 9.98376 46 ft 1 kts 356°
2026-05-06 22:51 53.64558 9.98374 46 ft 6 kts 358°
2026-05-06 22:51 53.64610 9.98376 46 ft 9 kts